• Join FlightAware (Why Join?)
  • Login
  • US Flag 
06:47AM EST


 

Airport Tracker/Info


-or-


 

Live Flight TrackerFlight Track Log ✈ KEN1301 ✈ 08-May-2012 ✈ KBFI - KCLM

Flight Track Log - Related Links

Times and Time Zones

All times are in EDT time to prevent confusion due to time zone crossing. See the KEN1301 flight status page for this flight to view local times or setup timezone preferences in your user account.

Time Position Orientation Groundspeed Altitude Reporting Facility
EDT Latitude Longitude Course Direction KTS MPH feet Rate Location/Type
12:43PM 47.5189 -122.3069 323° Northwest 102 117 800  Level Seattle Center
12:44PM 47.5467 -122.3375 334° Northwest 156 180 900 385 Climbing Seattle Center
12:45PM 47.5847 -122.3656 318° Northwest 149 171 1,500 344 Climbing Seattle Center
12:46PM 47.6181 -122.4097 310° West 163 188 1,600 422 Climbing Seattle Center
12:47PM 47.6464 -122.4600 298° West 149 171 2,400 931 Climbing Seattle Center
12:48PM 47.6611 -122.5011 305° West 131 151 3,400 1,271 Climbing Seattle Center
12:49PM 47.6736 -122.5272 314° West 126 145 4,200 759 Climbing Seattle Center
12:49PM 47.6925 -122.5561 313° West 140 161 4,400 188 Climbing Seattle Center
12:50PM 47.7192 -122.5983 319° Northwest 159 183 4,500 67 Climbing Seattle Center
12:51PM 47.7422 -122.6281 315° West 165 190 4,500  Level Seattle Center
12:52PM 47.7692 -122.6675 299° West 163 188 4,500 -53 Level Seattle Center
12:53PM 47.7906 -122.7250 297° West 158 182 4,400  Descending Seattle Center
12:54PM 47.8139 -122.7925 288° West 159 183 4,500 46 Climbing Seattle Center
12:55PM 47.8283 -122.8572 304° West 160 184 4,500  Level Seattle Center
12:56PM 47.8542 -122.9153 306° West 164 189 4,500  Level Seattle Center
12:57PM 47.8750 -122.9578 309° West 164 189 4,500 -52 Level Seattle Center
12:58PM 47.9028 -123.0092 313° West 162 186 4,400 -49 Descending Seattle Center
12:59PM 47.9364 -123.0631 310° West 163 188 4,400 -197 Level Seattle Center
01:00PM 47.9669 -123.1178 305° West 168 193 4,000 -344 Descending Seattle Center
01:01PM 47.9953 -123.1775 308° West 172 198 3,700 -295 Descending Seattle Center
01:02PM 48.0261 -123.2367 305° West 177 204 3,400 -197 Descending Seattle Center
01:03PM 48.0536 -123.2958 305° West 177 204 3,300 -98 Descending Seattle Center